Погода в Шиганаке

Поиск расширенной информации на нашем сайте:

Полезная информация:

Новости сайта



02.01.2020
Опубликован Долгосрочный прогноз погоды по городам России и ближнего зарубежья на январь 2020 года.
Карты: Прогноз на январь и февраль 2020 года, Сравнение прогнозируемой аномалии приземной температуры воздуха на январь 2020 года по разным моделям.




Погода в Шиганаке - сегодня

Время (UTC), дата Ветер
(°,м/с) 
Видим.   Явления Облачность Т
(°С)
Тd
(°С)
f(%) Тe
(°С)
Pmin
(гПа)
dP
(гПа)
Po
(мм)
O2
(г/м3)
Тmin Tmax R s Состояние
почвы
12 22.10.21 320 (СЗ) 20000 м    8/8 1000 м 
[Sc]
+7.1 -1.4 55 +8  1035.1  1.2  744  292           
15 22.10.21 тихо ()   н/о    8/8 1000 м 
[Sc]
+5 -2.6 58 +5  1037.1  1.7  745  295    +9       
18 22.10.21 200 (Ю) н/о    4/4 1000 м 
[Sc diur, vesp]
+3.9 -0.4 73 +5  1037.8  0.5  746  296    +9       
21 22.10.21 200 (Ю) н/о    5/5 1000 м 
[Sc]
+3.3 -0.8 74 +2  1038  746  297           
00 23.10.21 230 (ЮЗ) 3{05}  н/о    8/8 1000 м 
[Sc]
+3.1 -1.7 71 +2  1037.7  -0.3  746  297           
03 23.10.21 230 (ЮЗ) 20000 м    8/8 1000 м 
[Sc]
+4.4 -1.4 66 +5  1038.7  1.2  746  296           
06 23.10.21 230 (ЮЗ) 20000 м    5/0 средняя 
[Ac trans]
+9.6 -3.8 39 +11  1037.5  -0.5  746  291  +3.1         
09 23.10.21 180 (Ю) 20000 м    4/0 средняя 
[Ac trans]
+12.3 -4.4 31 +14  1034.9  -2  745  288           
12 23.10.21 140 (ЮВ) 20000 м    6/0 средняя 
[Ac As]
+10.1 -3.3 39 +11  1035.1  -0.1  745  290           
15 23.10.21 тихо ()   н/о    4/0 средняя 
[Ac trans]
+6.4 -1.4 57 +6  1036.1  0.4  745  293    +12.7       
18 23.10.21 тихо ()   н/о    ясно 
+3.5 -0.9 73 +4  1036.1  -0.5  744  296    +12.7       
21 23.10.21 тихо ()   н/о    ясно 
+2 -2 75 +2  1035  -1.2  744  298           
00 24.10.21 тихо () {02}  н/о    ясно 
+1.7 -2.1 76 +2  1034.4  -0.7  743  298           
03 24.10.21 090 (В) 4000 м  дымка  ясно 
+3.9 -0.1 75 +5  1034  743  295           
06 24.10.21 090 (В) 20000 м    ясно 
+9.4 +1.1 56 +10  1031.9  -1.2  742  289  +1.7         
09 24.10.21 090 (В) 20000 м    ясно 
+13.3 -1.2 37 +15  1028.1  -3.1  740  284           
12 24.10.21 070 (В) 20000 м    ясно 
+12.6 -0.7 40 +13  1026.6  -1.6  739  285           
15 24.10.21 070 (В) н/о    ясно 
+8.3 +0.6 58 +9  1026.2  -0.9  738  288    +13.7       
18 24.10.21 050 (СВ) н/о    ясно 
+6.9 -2.4 51 +6  1024.7  -1.7  737  290    +13.7       
21 24.10.21 050 (СВ) н/о    ясно 
+5.4 -1.7 60 +4  1023  -1.9  735  291           
00 25.10.21 090 (В) 1{05}  н/о    ясно 
+3.1 -1.7 71 +4  1022.5  -0.7  735  293    +0       
03 25.10.21 070 (В) 20000 м    ясно 
+3.9 -1.3 69 +5  1022.2  -0.1  735  292           
06 25.10.21 070 (В) 20000 м    ясно 
+7.6 -0.5 56 +9  1021.6  -0.2  734  288  +3.1         
09 25.10.21 050 (СВ) 20000 м    ясно 
+11.9 -1.7 39 +13  1019.1  -1.7  733  283           
12 25.10.21 360 (С) 20000 м    ясно 
+11.1 +0 46 +11  1018.5  -0.7  733  284           
Время (UTC), дата Ветер
(°,м/с) 
Видим.   Явления Облачность Т
(°С)
Тd
(°С)
f(%) Тe
(°С)
Pmin
(гПа)
dP
(гПа)
Po
(мм)
O2
(г/м3)
Тmin Tmax R s Состояние
почвы

Для получения пояснительной информации подведите курсор к названию столбца.

ПОГОДА в Шиганаке - архив

Всё, что Вы хотите узнать о погоде в Шиганаке - удобно и подробно!

Выберите нужную дату (начиная с 1 января 2019* года) и нажмите кнопку "Найти".
Будут отображены архивные сводки погоды по пункту Шиганак, начиная с указанной даты.


Отображать данные в формате CSV (для использования в таблицах Excel)


Внимание! Наш архив погоды предназначен исключительно для личного некоммерческого использования в познавательных целях. Если Вам необходимы официальные справки о состоянии погоды (для производственных, юридических, коммерческих и т.п. целей), обращайтесь в органы Росгидромета.

*Примечание: данная дата относится к архиву по метеостанциям СССР (Россия, СНГ, Балтия).
Архив по метеостанциям Зарубежной Европы и Азии (кроме Китая) хранится 10 дней, по другим регионам земного шара (Китай, Африка, Америка, Австралия, Океания) - 1 день.

Шиганак - район местоположения метеостанции


Название, широта, долгота, высота метеостанции:
Шиганак 45.1°ш. 74°д. 349 м над ур. моря [Казахстан]

Дополнительная информация

В oтличие oт бoльшинства пoгoдных сайтoв мы публикуем пoдрoбную метеoинфoрмацию в детальнoм прoфессиoнальнoм фoрмате.

Характеристики температуры и влажнoсти вoздуха измеряются на высoте 2 м в тени вдали oт зданий и деревьев.
Скoрoсть ветра измеряется на высoте 10 м (на урoвне рoста челoвека скoрoсть ветра ниже в 1.5-2 раза). Если метеoстанция нахoдится в гoрoде или в лесу, тo скoрoсть ветра занижена на 2-4 м/с пo сравнению с oткрытым местoм. Скoрoсть ветра над акватoриями крупных рек и oзёр, а также на вершинах хoлмoв на 2-5 м/с выше, чем в oбычных услoвиях.
Атмoсфернoе давление в разных тoчках местнoсти мoжет значительнo oтличаться oт давления на метеoстанции, в зависимoсти oт услoвий рельефа (при пoдъёме на 10 м давление пoнижается примернo на 1 мм рт.ст.).